User: anonymous   Login
Location: Unspecified
(0.0000°N, 0.0000°E)
Time: 10:34:11
(UTC+00:00)
Language:

SBIRS GEO 3 (USA 273) - Orbit

View from above orbital plane
View from above orbital plane
View from above satellite
View from above satellite

Ground track
Ground track

The orbit data is extracted from the following two-line orbital elements,

1 41937U 17004A   18152.62770486 0.00000000  00000-0  00000-0 0    06
2 41937   5.2389 313.6677 0004703 345.2776  14.7208  1.00557141    00
Epoch (UTC): 01 June 2018 15:03:53
Eccentricity: 0.0004703
inclination: 5.2389°
perigee height: 35686 km
apogee height: 35726 km
right ascension of ascending node: 313.6677°
argument of perigee: 345.2776°
revolutions per day: 1.00557141
mean anomaly at epoch: 14.7208°
orbit number at epoch: 0

The dashed part of the orbit path shows where the satellite is in the earth's shadow,  

DLR